Погода в Белово

Россия / Челябинская область     54°25′17″N   60°08′02″E
темп.,
°C
ветер,
м/с
пор.,
м/с
влажн.,
%
обл.,
%
осадки,
мм/ч
давл.,
гПа
погр.,
м
11 апреля, вс
вс1123:00+2ююз3899100 0.0 1037194
02:00+1ююз4999100 0.0 1037223
05:000ююз41095100 0.0 1037231
08:00+1ююз5119398 0.0 1038267
11:00+4ююз7109248 0.0 1037337
14:00+7ююз7108631 0.0 1036434
17:00+7ююз7108553 0.0 1036410
20:00+4ююз510936 0.0 1036231
12 апреля, пн
пн1223:00+3ююз37915 0.0 1036118
02:00+3юз22895 0.0 103622
05:00+3юз118693 0.0 103610
08:00+6зсз118339 0.0 103610
11:00+11св237190 0.0 1036337
14:00+14в346489 0.0 1036698
17:00+14всв3468100 0.0 1036833
20:00+10всв479146 0.0 1037159
13 апреля, вт
вт1323:00+8всв3696100 0.0 1038184
02:00+8всв2498100 0.1 1038183
05:00+7в1196100 0.2 103942
08:00+7ю129495 0.0 103995
11:00+10ююз348690 0.0 1038520
14:00+11ю3479100 0.0 1037692
17:00+12ю4477100 0.0 1036808
20:00+9ю358821 0.0 1035102
14 апреля, ср
ср1423:00+8ююз3590100 0.0 103591
02:00+6юз349386 0.0 103480
05:00+6юз33935 0.0 103333
08:00+7юз12894 0.0 103272
11:00+12юз11705 0.0 1030371
14:00+15ю22615 0.0 1028824
17:00+16ююз22551 0.0 1026947
20:00+12ю22685 0.0 102517
15 апреля, чт
чт1523:00+10юз22752 0.0 102511
02:00+9зюз11805 0.0 102310
05:00+8сз11820 0.0 102310
08:00+9ссз11750 0.0 102243
11:00+14юв00560 0.0 1021446
14:00+16ююз22530 0.0 10191084
17:00+17юз22460 0.0 10171217
20:00+13ю22610 0.0 101617